GW4179 Weather Reports


Display with metric or nautical units.
time (UTC)temp
F
wind
direction
speed
MPH
gust
MPH
rain 1hr
in
rain 24hr
in
rain mn
in
humidity
%
barometer
mb
20260505022640 56 167 0.0 0.0 0.00 0.00 0.00 68
20260505022137 57 164 0.0 0.0 0.00 0.00 0.00 67
20260505021633 57 182 0.0 0.0 0.00 0.00 0.00 66
20260505021130 58 176 0.0 0.0 0.00 0.00 0.00 65
20260505020625 59 177 0.0 0.0 0.00 0.00 0.00 64
20260505020122 59 182 0.0 3.0 0.00 0.00 0.00 63
20260505015619 60 199 2.0 3.0 0.00 0.00 0.00 62
20260505015116 60 209 2.0 3.0 0.00 0.00 0.00 62
20260505014612 60 188 2.0 6.0 0.00 0.00 0.00 61
20260505014110 60 246 4.0 6.0 0.00 0.00 0.00 61
20260505013607 60 207 2.0 4.0 0.00 0.00 0.00 61
20260505013104 60 216 3.0 4.0 0.00 0.00 0.00 61
20260505012602 60 226 2.0 3.0 0.00 0.00 0.00 61
20260505012059 61 199 2.0 4.0 0.00 0.00 0.00 60
20260505011554 61 248 3.0 6.0 0.00 0.00 0.00 60
20260505011052 61 220 3.0 6.0 0.00 0.00 0.00 60
20260505010547 61 241 2.0 6.0 0.00 0.00 0.00 60
20260505010044 61 236 4.0 7.0 0.00 0.00 0.00 60
20260505005540 61 201 2.0 3.0 0.00 0.00 0.00 59
20260505005038 62 212 2.0 4.0 0.00 0.00 0.00 59
20260505004534 62 234 3.0 3.0 0.00 0.00 0.00 59
20260505004031 62 208 4.0 7.0 0.00 0.00 0.00 58
20260505003529 62 208 2.0 6.0 0.00 0.00 0.00 58
20260505003026 62 200 2.0 7.0 0.00 0.00 0.00 58
20260505002526 62 254 4.0 9.0 0.00 0.00 0.00 57
20260505002026 62 206 4.0 6.0 0.00 0.00 0.00 58
20260505001522 63 202 3.0 7.0 0.00 0.00 0.00 57
20260505001019 63 187 5.0 9.0 0.00 0.00 0.00 57
20260505000517 63 255 6.0 6.0 0.00 0.00 0.00 56
20260505000014 63 145 2.0 7.0 0.00 0.00 0.00 56
20260504235511 63 258 6.0 10.0 0.00 0.00 0.00 55
20260504235007 64 225 3.0 6.0 0.00 0.00 0.00 56
20260504234505 64 261 7.0 11.0 0.00 0.00 0.00 55
20260504234001 64 190 3.0 9.0 0.00 0.00 0.00 55
20260504233456 64 234 4.0 6.0 0.00 0.00 0.00 54
20260504232954 64 236 8.0 11.0 0.00 0.00 0.00 54
20260504232451 64 258 3.0 6.0 0.00 0.00 0.00 54
20260504231948 64 252 4.0 13.0 0.00 0.00 0.00 54
20260504231444 64 245 5.0 9.0 0.00 0.00 0.00 54
20260504230941 64 267 5.0 14.0 0.00 0.00 0.00 53
20260504230437 65 245 6.0 11.0 0.00 0.00 0.00 54
20260504225937 65 239 5.0 7.0 0.00 0.00 0.00 54
20260504225433 65 266 3.0 7.0 0.00 0.00 0.00 53
20260504224930 64 241 5.0 10.0 0.00 0.00 0.00 54
20260504224427 64 230 9.0 11.0 0.00 0.00 0.00 54
20260504223924 64 245 4.0 11.0 0.00 0.00 0.00 54
20260504223419 65 256 10.0 20.0 0.00 0.00 0.00 53
20260504222915 66 269 14.0 19.0 0.00 0.00 0.00 51
20260504222413 65 284 9.0 14.0 0.00 0.00 0.00 52
20260504221911 65 249 7.0 14.0 0.00 0.00 0.00 52
20260504221408 66 271 4.0 11.0 0.00 0.00 0.00 52
20260504220905 67 249 11.0 13.0 0.00 0.00 0.00 50
20260504220401 66 261 6.0 19.0 0.00 0.00 0.00 51
20260504215859 66 239 9.0 16.0 0.00 0.00 0.00 51
20260504215355 66 264 10.0 14.0 0.00 0.00 0.00 51
20260504214851 65 237 4.0 14.0 0.00 0.00 0.00 52
20260504214348 66 235 13.0 19.0 0.00 0.00 0.00 51
20260504213845 66 242 6.0 11.0 0.00 0.00 0.00 51
20260504213340 66 189 4.0 13.0 0.00 0.00 0.00 52
20260504212838 66 248 7.0 11.0 0.00 0.00 0.00 51
20260504212334 66 248 6.0 13.0 0.00 0.00 0.00 50
20260504211832 66 243 8.0 20.0 0.00 0.00 0.00 50
20260504211328 66 251 4.0 11.0 0.00 0.00 0.00 50
20260504210826 68 252 12.0 17.0 0.00 0.00 0.00 47
20260504210323 68 208 8.0 20.0 0.00 0.00 0.00 47
20260504205820 68 282 13.0 17.0 0.00 0.00 0.00 47
20260504205318 69 263 19.0 21.0 0.00 0.00 0.00 46
20260504204816 68 263 7.0 14.0 0.00 0.00 0.00 48
20260504204314 67 222 10.0 19.0 0.00 0.00 0.00 48
20260504203813 68 215 9.0 19.0 0.00 0.00 0.00 47
20260504203309 67 228 12.0 17.0 0.00 0.00 0.00 49
20260504202804 67 227 6.0 14.0 0.00 0.00 0.00 48
20260504202302 68 286 8.0 10.0 0.00 0.00 0.00 47
20260504201758 67 259 8.0 11.0 0.00 0.00 0.00 49
20260504201255 67 265 10.0 19.0 0.00 0.00 0.00 48
20260504200754 68 245 7.0 14.0 0.00 0.00 0.00 47
20260504200249 68 263 5.0 10.0 0.00 0.00 0.00 47
20260504195746 68 269 10.0 16.0 0.00 0.00 0.00 48
20260504195241 68 217 6.0 14.0 0.00 0.00 0.00 49
20260504194739 67 226 5.0 10.0 0.00 0.00 0.00 50
20260504194235 66 284 11.0 23.0 0.00 0.00 0.00 50
20260504193731 66 265 5.0 10.0 0.00 0.00 0.00 50
20260504193229 67 257 10.0 17.0 0.00 0.00 0.00 50
20260504192727 66 113 2.0 10.0 0.00 0.00 0.00 52
20260504192225 66 247 5.0 10.0 0.00 0.00 0.00 52
20260504191724 66 227 5.0 16.0 0.00 0.00 0.00 51
20260504191221 65 244 7.0 14.0 0.00 0.00 0.00 52
20260504190715 66 218 8.0 10.0 0.00 0.00 0.00 52
20260504190212 65 269 6.0 20.0 0.00 0.00 0.00 52
20260504185709 66 257 13.0 14.0 0.00 0.00 0.00 51
20260504185205 65 241 5.0 10.0 0.00 0.00 0.00 53
20260504184701 66 264 10.0 13.0 0.00 0.00 0.00 53
20260504184157 65 101 4.0 10.0 0.00 0.00 0.00 53
20260504183654 65 180 5.0 7.0 0.00 0.00 0.00 52
20260504183151 65 263 12.0 16.0 0.00 0.00 0.00 55
20260504182649 66 252 5.0 14.0 0.00 0.00 0.00 52
20260504182146 66 139 5.0 9.0 0.00 0.00 0.00 52
20260504181643 66 212 4.0 10.0 0.00 0.00 0.00 51
20260504181141 66 247 5.0 10.0 0.00 0.00 0.00 53
20260504180640 65 149 2.0 7.0 0.00 0.00 0.00 54
20260504180138 64 263 9.0 14.0 0.00 0.00 0.00 54
20260504175635 63 274 12.0 17.0 0.00 0.00 0.00 54
20260504175132 64 194 5.0 17.0 0.00 0.00 0.00 54
20260504174630 63 234 9.0 13.0 0.00 0.00 0.00 54
20260504174126 63 249 7.0 14.0 0.00 0.00 0.00 55
20260504173623 64 196 4.0 11.0 0.00 0.00 0.00 53
20260504173121 64 244 4.0 7.0 0.00 0.00 0.00 53
20260504172617 63 187 7.0 16.0 0.00 0.00 0.00 54
20260504172114 64 231 9.0 11.0 0.00 0.00 0.00 51
20260504171610 63 244 6.0 11.0 0.00 0.00 0.00 52
20260504171108 64 191 8.0 11.0 0.00 0.00 0.00 51
20260504170603 64 266 6.0 11.0 0.00 0.00 0.00 50
20260504150941 61 294 12.0 14.0 0.00 0.00 0.00 49
20260504150438 61 231 4.0 10.0 0.00 0.00 0.00 49
20260504140904 57 275 8.0 16.0 0.00 0.00 0.00 51
20260504140400 57 216 9.0 13.0 0.00 0.00 0.00 51
20260504130325 53 204 3.0 11.0 0.00 0.00 0.00 57
20260504120248 48 219 3.0 4.0 0.00 0.00 0.00 66
20260504110715 44 196 0.0 1.0 0.00 0.00 0.00 69
20260504110212 44 195 2.0 3.0 0.00 0.00 0.00 69
20260504100131 44 181 4.0 6.0 0.00 0.00 0.00 69
20260504081524 44 199 1.0 1.0 0.00 0.00 0.00 62
20260504081019 44 192 1.0 1.0 0.00 0.00 0.00 61
20260504080516 44 192 1.0 3.0 0.00 0.00 0.00 61
20260504050328 40 175 0.0 0.0 0.00 0.00 0.00 67
20260504045826 40 184 0.0 0.0 0.00 0.00 0.00 66
20260504045320 40 181 0.0 0.0 0.00 0.00 0.00 65
20260504044818 40 167 0.0 0.0 0.00 0.00 0.00 66
20260504044315 40 167 0.0 0.0 0.00 0.00 0.00 65
20260504043812 40 171 0.0 0.0 0.00 0.00 0.00 64
20260504043309 41 160 0.0 0.0 0.00 0.00 0.00 63
20260504042807 41 196 0.0 0.0 0.00 0.00 0.00 62
20260504042304 41 213 1.0 1.0 0.00 0.00 0.00 62
20260504041759 40 191 0.0 1.0 0.00 0.00 0.00 62
20260504041255 40 196 0.0 1.0 0.00 0.00 0.00 63
20260504040752 40 189 0.0 1.0 0.00 0.00 0.00 64
20260504040249 39 170 0.0 0.0 0.00 0.00 0.00 65
20260504035745 39 163 0.0 0.0 0.00 0.00 0.00 65
20260504035242 40 163 0.0 0.0 0.00 0.00 0.00 65
20260504034740 40 178 0.0 0.0 0.00 0.00 0.00 65
20260504034237 40 180 0.0 1.0 0.00 0.00 0.00 64
20260504033734 40 179 0.0 0.0 0.00 0.00 0.00 64
20260504033232 41 176 0.0 0.0 0.00 0.00 0.00 64
20260504032728 41 183 0.0 0.0 0.00 0.00 0.00 62
20260504032226 41 182 0.0 0.0 0.00 0.00 0.00 63
20260504031722 41 189 0.0 0.0 0.00 0.00 0.00 61
20260504031220 42 192 0.0 0.0 0.00 0.00 0.00 61
20260504030715 42 192 0.0 1.0 0.00 0.00 0.00 60
20260504030213 41 185 1.0 1.0 0.00 0.00 0.00 60
20260504025709 41 186 0.0 1.0 0.00 0.00 0.00 62
20260504025206 42 183 0.0 0.0 0.00 0.00 0.00 62
20260504024703 42 183 0.0 0.0 0.00 0.00 0.00 61
20260504024200 42 183 0.0 0.0 0.00 0.00 0.00 61
20260504023656 42 167 0.0 0.0 0.00 0.00 0.00 60
20260504023152 42 164 0.0 0.0 0.00 0.00 0.00 60